Regional Weather Roundup
Issued by NWS

Home | Current Version | Previous Version | Graphics & Text | Print | Product List | Glossary On
Versions: 1 2 3 4 5 6 7 8 9 10 11 12 13 14 15 16 17 18 19 20 21 22 23 24 25 26 27 28 29 30 31 32 33 34 35 36 37 38 39 40 41 42 43 44 45 46 47 48 49 50
000
ASUS43 KLSX 240707
RWRMO
STLRWRMO ALL

WEATHER SUMMARY FOR MISSOURI
NATIONAL WEATHER SERVICE SPRINGFIELD MO
200 AM CDT MON JUL 24 2017

NOTE: "FAIR" INDICATES FEW OR NO CLOUDS BELOW 12,000 FEET WITH NO
       SIGNIFICANT WEATHER AND/OR OBSTRUCTIONS TO VISIBILITY.
       CURRENT SKY AND/OR WEATHER CONDITIONS ARE NOT AVAILABLE FOR
       CHILLICOTHE AND FARMINGTON.

MOZ001>031-035>038-043-044-053-054-240800-
...NORTHERN AND WESTERN MISSOURI...

CITY           SKY/WX    TMP DP  RH WIND       PRES   REMARKS
KANSAS CTY INT CLEAR     74  67  78 NE9       29.96S
KANSAS C DTWN  PTCLDY    77  67  71 NE7       29.95R
LEE`S SUMMIT   CLEAR     76  70  82 NE6       29.96S
ST JOSEPH      CLEAR     69  66  90 N7        29.97S
CHILLICOTHE      N/A     72  66  81 CALM      29.97S
KIRKSVILLE     PTCLDY    66  62  87 N5        29.97R

$$
MOZ066>068-077>081-088>096-101>105-240800-
...SOUTHWEST MISSOURI...

CITY           SKY/WX    TMP DP  RH WIND       PRES   REMARKS
SPRINGFIELD    PTCLDY    73  70  90 CALM      29.96S
JOPLIN         CLEAR     76  72  87 SW8       29.96S
BRANSON        PTCLDY    73  68  83 CALM      29.97S

$$
MOZ032>034-039>042-045>050-055>058-069>072-240800-
...CENTRAL MISSOURI...

CITY           SKY/WX    TMP DP  RH WIND       PRES   REMARKS
COLUMBIA       MOCLDY    75  71  87 NE7       29.93R
JEFFERSON CITY PTCLDY    74  72  93 CALM      29.91S
ROLLA          PTCLDY    73  70  90 SW3       29.93S
SEDALIA        CLEAR     77  76  96 CALM      29.94R
WHITEMAN AFB   CLEAR     76  76 100 NE8       29.92S
OSAGE BEACH    PTCLDY    72  69  90 CALM      29.93F

$$
MOZ051-052-059>065-240800-
...EAST CENTRAL MISSOURI...

CITY           SKY/WX    TMP DP  RH WIND       PRES   REMARKS
ST LOUIS INTL  PTCLDY    78  69  73 N7        29.90F
SPIRIT OF STL  PTCLDY    75  72  90 CALM      29.90S
ST CHARLES     CLOUDY    75  70  84 CALM      29.89S

$$
MOZ072>076-082>087-097>100-106>115-240800-
...SOUTH CENTRAL AND SOUTHEAST MISSOURI...

CITY           SKY/WX    TMP DP  RH WIND       PRES   REMARKS
CAPE GIRARDEAU CLEAR     74  70  87 SW3       29.89F
FARMINGTON     CLEAR     72  70  93 CALM      29.92F
POPLAR BLUFF   PTCLDY    75  73  93 CALM      29.89F
WEST PLAINS    PTCLDY    71  66  84 CALM      29.95S

$$




USA.gov is the U.S. government's official web portal to all federal, state and local government web resources and services.